[[{"header":{"parameterUnit":"m.s-1","parameterCategory":1,"la1":30.2991,"la2":30.254,"lo1":-89.0895,"lo2":-89.0444,"dy":0.0017,"dx":0.0017,"nx":28,"ny":28,"refTime":"2024-07-07T03:00:00:Z","depth":0,"parameterNumber":2,"parameterNumberName":"U-component_of_WINDS"},"data":[0,0,0,0,0,0,0,0,0,0,0,0,0,0,0,0,0,0,0,0,0,0,0,0,0,0,0,0,0,0,0,0,0,0,0,0,0,0,0,0,0,0,0,0,0,0,0,0,0,0,0,0,0,0,0,0,0,0,0.422,0.4221,0,0.4313,0.4314,0.4315,0.4319,0.4318,0.4317,0.4316,0.4417,0.4421,0.4424,0,0,0,0,0,0,0,0,0,0,0,0,0,0.4051,0.4054,0.422,0.4221,0.4222,0.4313,0.4314,0.4315,0.4319,0.4318,0.4316,0.4315,0.4416,0.442,0.4425,0,0,0,0,0,0,0,0,0,0,0,0,0,0.4132,0.4055,0.422,0.4235,0.4237,0.4312,0.4314,0.4316,0.4319,0.4318,0.4316,0.4315,0.4414,0.442,0.4425,0.4494,0,0,0.4443,0.4445,0,0,0,0,0,0,0,0,0.4127,0.4138,0.4231,0.4234,0.4237,0.4302,0.4291,0.4376,0.432,0.4288,0.4316,0.4314,0.4381,0.4389,0.441,0.4498,0.4503,0.4443,0.4446,0.4449,0.445,0,0,0,0,0,0,0,0.4122,0.4134,0.4257,0.4233,0.4236,0.4239,0.4248,0.4307,0.4343,0.4291,0.4292,0.4302,0.4382,0.4405,0.4413,0.4504,0.4443,0.4448,0.4451,0.4453,0.4653,0.4655,0,0,0,0,0,0,0.4112,0.413,0.4254,0.426,0.4177,0.4243,0.4254,0.4283,0.4342,0.435,0.4303,0.4302,0.4396,0.4406,0.4416,0.45,0.4449,0.4454,0.4457,0.4651,0.4654,0.4656,0,0,0,0,0,0,0.4109,0.4123,0.425,0.4195,0.4211,0.4248,0.4281,0.4286,0.4309,0.4352,0.4359,0.432,0.4395,0.4408,0.4474,0.4504,0.4457,0.4462,0.4649,0.4652,0.4655,0.4668,0,0,0,0,0,0,0.4104,0.4122,0.4147,0.4195,0.4214,0.4305,0.4282,0.4289,0.4318,0.4317,0.4369,0.4376,0.4395,0.4466,0.448,0.4511,0.4466,0.4647,0.465,0.4654,0.4666,0.4672,0.4677,0,0,0,0,0,0.4098,0.4149,0.4148,0.4163,0.4246,0.4306,0.4317,0.4336,0.432,0.4347,0.4374,0.4375,0.4498,0.4472,0.4488,0.4521,0.4645,0.4649,0.4653,0.4663,0.467,0.4676,0,0,0,0,0,0,0.4106,0.4155,0.4156,0.4223,0.426,0.4307,0.4341,0.4343,0.4387,0.4384,0.4407,0.4419,0.4484,0.4509,0.448,0.4591,0.457,0.4578,0.4572,0.4579,0.4584,0.4578,0.4471,0,0,0,0,0,0.4115,0.4158,0.42,0.4256,0.4274,0.4304,0.4331,0.4342,0.4382,0.4398,0.4431,0.4471,0.4519,0.455,0.4597,0.4669,0.4681,0.47,0.4705,0.4709,0.4716,0.4757,0.4766,0.467,0.467,0.467,0,0,0.4136,0.4168,0.4194,0.4258,0.4288,0.4334,0.4317,0.4367,0.4401,0.4407,0.447,0.4495,0.4542,0.4611,0.4643,0.4634,0.4745,0.4715,0.4718,0.4723,0.4762,0.4771,0.4779,0.4673,0.4672,0.4672,0,0,0.4196,0.4224,0.4274,0.4303,0.4348,0.4367,0.4379,0.4425,0.4441,0.4505,0.451,0.4552,0.4634,0.4667,0.4695,0.4766,0.4769,0.4781,0.481,0.4849,0.4857,0.4864,0.489,0.4899,0.4787,0.4787,0.4787,0,0.4216,0.4283,0.4299,0.4348,0.4376,0.4381,0.4432,0.4461,0.4519,0.4539,0.4528,0.463,0.4662,0.4739,0.4756,0.4778,0.4793,0.4776,0.4854,0.4861,0.4868,0.4893,0.4903,0.4789,0.4788,0.4788,0.4788,0,0.4306,0.4353,0.4388,0.4441,0.4474,0.4524,0.4548,0.458,0.4587,0.4608,0.4673,0.4711,0.4766,0.4784,0.4794,0.4863,0.4856,0.4849,0.4829,0.4878,0.4902,0.4912,0.479,0.479,0.479,0.4789,0,0,0.4376,0.4436,0.4449,0.4473,0.4522,0.456,0.461,0.466,0.4687,0.4727,0.4771,0.4839,0.4833,0.4864,0.4877,0.4911,0.4966,0.49,0.4902,0.4912,0.5046,0.5051,0.5062,0.4967,0.4969,0.4971,0.5042,0,0.4442,0.4529,0.4545,0.4622,0.4665,0.467,0.4714,0.4749,0.477,0.4812,0.4836,0.4884,0.4871,0.489,0.4924,0.4952,0.4993,0.4947,0.501,0.5012,0.4999,0.5075,0.5081,0.5146,0.5052,0.5053,0.5054,0,0.4532,0.4571,0.4652,0.4694,0.4713,0.4752,0.48,0.4839,0.488,0.4893,0.4927,0.4935,0.4989,0.4965,0.5041,0.5009,0.5036,0.5053,0.5056,0.5064,0.5037,0.5085,0.5167,0.5178,0.5069,0.5068,0.5067,0,0.4575,0.4649,0.4706,0.4727,0.4778,0.4805,0.4828,0.4867,0.4896,0.4938,0.4958,0.5007,0.5034,0.5072,0.5094,0.5075,0.5169,0.5147,0.5182,0.5182,0.5203,0.5202,0.5292,0.5219,0.5218,0.5218,0.5218,0,0.4648,0.4697,0.4726,0.4762,0.4818,0.4835,0.489,0.4913,0.4948,0.4989,0.4996,0.5036,0.5062,0.5105,0.5123,0.5183,0.5196,0.5209,0.5213,0.5209,0.5207,0.5228,0.5224,0.5221,0.522,0.522,0.5219,0,0.4706,0.4727,0.479,0.4832,0.4844,0.4883,0.492,0.4956,0.4976,0.5029,0.5042,0.5075,0.5126,0.5151,0.5216,0.5228,0.5297,0.5298,0.5282,0.5284,0.5319,0.5315,0.5426,0.5442,0.5357,0.5358,0.5358,0,0.4752,0.479,0.4835,0.4862,0.4884,0.4928,0.4957,0.4976,0.5007,0.5056,0.5086,0.5137,0.5179,0.5261,0.5292,0.5342,0.5345,0.538,0.5353,0.5347,0.5347,0.5344,0.5349,0.5385,0.5386,0.5387,0.5387,0,0.4831,0.4839,0.4879,0.4924,0.4958,0.4994,0.503,0.5053,0.5078,0.5112,0.5163,0.5195,0.526,0.5312,0.5363,0.5389,0.5393,0.5395,0.5407,0.5403,0.5393,0.54,0.5297,0.5393,0.5393,0.5392,0.5392,0.5392,0.4885,0.4918,0.4955,0.5,0.5028,0.5062,0.5097,0.512,0.5163,0.5215,0.5224,0.5279,0.532,0.5389,0.5416,0.5461,0.5453,0.5469,0.5473,0.5477,0.5479,0.5384,0.547,0.547,0.547,0.547,0.547,0,0.4965,0.4988,0.5029,0.5078,0.5114,0.5111,0.5151,0.5182,0.5229,0.5265,0.5305,0.5365,0.5414,0.5448,0.5499,0.5528,0.5532,0.5541,0.554,0.5546,0.5483,0.5468,0.5537,0.5537,0.5537,0.5537,0.5537,0.5537,0.5011,0.5067,0.5079,0.5151,0.5174,0.5226,0.5249,0.528,0.5309,0.5374,0.5414,0.5435,0.5471,0.5524,0.557,0.5579,0.5598,0.5608,0.5617,0.5557,0.555,0.5544,0.553,0.5611,0.5611,0.5676,0.5677,0.5677]},{"header":{"parameterUnit":"m.s-1","parameterCategory":1,"la1":30.2991,"la2":30.254,"lo1":-89.0895,"lo2":-89.0444,"dy":0.0017,"dx":0.0017,"nx":28,"ny":28,"refTime":"2024-07-07T03:00:00:Z","depth":0,"parameterNumber":3,"parameterNumberName":"V-component_of_WINDS"},"data":[0,0,0,0,0,0,0,0,0,0,0,0,0,0,0,0,0,0,0,0,0,0,0,0,0,0,0,0,0,0,0,0,0,0,0,0,0,0,0,0,0,0,0,0,0,0,0,0,0,0,0,0,0,0,0,0,0,0,1.009,1.009,0,1.012,1.012,1.0121,1.0083,1.0082,1.008,1.0079,1.0109,1.0111,1.0113,0,0,0,0,0,0,0,0,0,0,0,0,0,0.9999,1.0001,1.009,1.009,1.0091,1.012,1.012,1.0121,1.0083,1.0082,1.008,1.0078,1.0108,1.0111,1.0113,0,0,0,0,0,0,0,0,0,0,0,0,0,1.0035,1.0001,1.009,1.0075,1.0074,1.012,1.012,1.0121,1.0084,1.0081,1.0079,1.0077,1.0107,1.011,1.0113,1.0174,0,0,1.0123,1.0124,0,0,0,0,0,0,0,0,1.0033,1.0038,1.0077,1.0076,1.0075,1.0096,1.0099,1.0139,1.0084,1.008,1.0079,1.0076,1.0106,1.0109,1.0119,1.0175,1.0177,1.0123,1.0125,1.0126,1.0127,0,0,0,0,0,0,0,1.003,1.0037,1.0102,1.0078,1.0077,1.0067,1.007,1.0107,1.0104,1.008,1.0078,1.0082,1.0105,1.0116,1.012,1.0177,1.0123,1.0126,1.0128,1.0129,1.0286,1.0288,0,0,0,0,0,0,1.003,1.0035,1.0101,1.0103,1.0049,1.0071,1.0074,1.0091,1.0104,1.0104,1.0083,1.008,1.0112,1.0116,1.0121,1.0194,1.0126,1.0129,1.0131,1.0284,1.0286,1.0289,0,0,0,0,0,0,1.0028,1.0036,1.0099,1.0068,1.0075,1.0074,1.0094,1.0093,1.0104,1.0106,1.0105,1.0095,1.0111,1.0116,1.0161,1.0194,1.0131,1.0134,1.0281,1.0284,1.0288,1.034,0,0,0,0,0,0,1.0025,1.0035,1.0059,1.0069,1.0077,1.014,1.0096,1.0095,1.011,1.0105,1.0117,1.0117,1.0109,1.0157,1.0165,1.0197,1.0136,1.0278,1.0282,1.0287,1.0335,1.0345,1.0353,0,0,0,0,0,1.0022,1.0072,1.006,1.0068,1.0106,1.0142,1.0147,1.0137,1.0112,1.0136,1.0137,1.0117,1.0189,1.0162,1.017,1.0204,1.0276,1.0281,1.0286,1.0331,1.0343,1.0353,0,0,0,0,0,0,1.0065,1.0073,1.006,1.0114,1.0128,1.0136,1.0165,1.0149,1.017,1.0165,1.0152,1.0155,1.0204,1.0208,1.0178,1.0264,1.0228,1.0235,1.026,1.0271,1.0279,1.0278,1.0139,0,0,0,0,0,1.0081,1.0109,1.0114,1.0162,1.0169,1.0166,1.0181,1.0173,1.0186,1.0192,1.0196,1.021,1.0236,1.0253,1.0277,1.0335,1.0338,1.0363,1.0372,1.0379,1.0386,1.0418,1.043,1.0306,1.0306,1.0306,0,0,1.0113,1.0121,1.014,1.0171,1.018,1.0211,1.0171,1.0204,1.0227,1.0197,1.024,1.0244,1.0258,1.0311,1.0334,1.0316,1.042,1.0385,1.0391,1.0394,1.0425,1.0436,1.0447,1.0309,1.0309,1.0308,0,0,1.0189,1.0197,1.0238,1.0249,1.0264,1.0262,1.0272,1.0282,1.0284,1.0327,1.0306,1.0332,1.0376,1.0388,1.04,1.048,1.0463,1.0488,1.0535,1.0566,1.0576,1.0585,1.0615,1.0626,1.0495,1.0495,1.0495,0,1.0228,1.0273,1.0261,1.0297,1.0311,1.0285,1.0327,1.0338,1.036,1.0371,1.035,1.0406,1.0414,1.047,1.0489,1.0499,1.0511,1.0488,1.0576,1.0584,1.0592,1.0621,1.0632,1.0498,1.0497,1.0497,1.0497,0,1.0321,1.0352,1.0384,1.0407,1.0424,1.0463,1.0457,1.0476,1.0466,1.0466,1.0511,1.0519,1.0545,1.0557,1.0547,1.0611,1.06,1.0578,1.0542,1.0607,1.0634,1.0645,1.0502,1.0501,1.05,1.0499,0,0,1.0425,1.0441,1.0453,1.0464,1.0479,1.0503,1.054,1.0566,1.0584,1.0599,1.0631,1.0669,1.0649,1.0663,1.0654,1.0681,1.0747,1.0656,1.0656,1.0674,1.082,1.0838,1.0851,1.0734,1.0736,1.0738,1.082,0,1.0502,1.0567,1.0558,1.0621,1.0651,1.0627,1.0659,1.0672,1.0673,1.0698,1.0698,1.0727,1.0697,1.0705,1.0731,1.0733,1.0776,1.0727,1.0765,1.0766,1.0764,1.0865,1.0884,1.0961,1.083,1.0832,1.0833,0,1.0601,1.0622,1.0688,1.07,1.0712,1.0741,1.0765,1.0788,1.0803,1.0801,1.0817,1.0803,1.084,1.0802,1.0855,1.0821,1.0836,1.0839,1.0842,1.0847,1.0805,1.0874,1.0985,1.0997,1.0849,1.0848,1.0847,0,1.0673,1.0717,1.0762,1.0772,1.0786,1.0808,1.0814,1.0827,1.0843,1.0863,1.0874,1.0898,1.0911,1.093,1.0923,1.0896,1.0977,1.0939,1.0978,1.0979,1.0998,1.0997,1.1114,1.1004,1.1004,1.1004,1.1004,0,1.0761,1.0802,1.0795,1.0823,1.087,1.0858,1.0904,1.0908,1.0919,1.0948,1.0928,1.0955,1.0944,1.097,1.0965,1.101,1.1015,1.1016,1.1015,1.1019,1.1019,1.103,1.1025,1.1007,1.1006,1.1006,1.1005,0,1.0849,1.0845,1.0894,1.0904,1.0907,1.0941,1.0949,1.0976,1.0975,1.1012,1.102,1.1018,1.1049,1.1043,1.1077,1.1073,1.113,1.1121,1.1126,1.1125,1.1165,1.1162,1.1295,1.1312,1.1189,1.119,1.1191,0,1.0906,1.0938,1.0952,1.097,1.0979,1.1008,1.1025,1.1014,1.1033,1.1052,1.1077,1.1105,1.1128,1.1178,1.118,1.1206,1.1198,1.1243,1.1202,1.1206,1.1202,1.1201,1.1205,1.1252,1.1253,1.1254,1.1255,0,1.1009,1.1006,1.1031,1.1057,1.1078,1.1097,1.1114,1.113,1.1121,1.1143,1.1175,1.1192,1.1227,1.1256,1.128,1.1287,1.1271,1.1268,1.1279,1.1285,1.1287,1.1289,1.115,1.1265,1.1264,1.1264,1.1263,1.1263,1.1085,1.1113,1.1127,1.1156,1.1168,1.1185,1.1211,1.1214,1.124,1.1268,1.126,1.1296,1.131,1.1341,1.1351,1.1379,1.1362,1.1378,1.1382,1.1386,1.1392,1.1281,1.1383,1.1383,1.1382,1.1382,1.1382,0,1.1189,1.1197,1.1224,1.1249,1.1272,1.1254,1.1272,1.1293,1.1325,1.134,1.1363,1.14,1.1428,1.1432,1.146,1.1481,1.1475,1.1489,1.1488,1.1491,1.1405,1.1393,1.1494,1.1494,1.1494,1.1494,1.1494,1.1494,1.1245,1.1292,1.1291,1.1343,1.1351,1.1387,1.1399,1.1414,1.1426,1.1468,1.1492,1.1495,1.1506,1.1534,1.1559,1.156,1.1572,1.159,1.1588,1.1508,1.1496,1.1486,1.1475,1.1592,1.1592,1.1672,1.1672,1.1673]}]]